Location: Zagreb
(45.8000°N, 16.0000°E)
Time: 02:33:39
(UTC+02:00)

Transit 2A Rocket - Pass Details

Date: 30 January 2022
Orbit: 592 x 909 km, 66.7° (Epoch: 26 May)

Event Time Altitude Azimuth Distance (km) Brightness Sun altitude
Rises 01:08:09 0° 330° (NNW) 3,467 - -59.4°
Reaches altitude 10° 01:11:00 10° 340° (NNW) 2,485 - -59.1°
Maximum altitude 01:16:06 32° 43° (NE) 1,358 - -58.7°
Drops below altitude 10° 01:20:49 10° 106° (ESE) 2,290 - -58.2°
Sets 01:23:20 0° 116° (ESE) 3,156 - -58.0°
